Chehalis, WA

11:57 PM PST on January 16, 2017 (GMT -0800)
Chehalis-Centralia

Weather History for KCLS - December, 2012

Change the Weather History Date:

Wednesday, December 26, 2012

  Actual Average (KTDO) Record (KTDO)
Temperature  
Mean Temperature 42 °F -  
Max Temperature 44 °F 43 °F 60 °F (1980)
Min Temperature 39 °F 35 °F 18 °F (1962)
Degree Days  
Heating Degree Days 24    
Moisture  
Dew Point 40 °F    
Average Humidity 93    
Maximum Humidity 100    
Minimum Humidity 81    
Precipitation  
Precipitation 0.12 in - - ()
Sea Level Pressure  
Sea Level Pressure 29.82 in    
Wind  
Wind Speed 6 mph (South)    
Max Wind Speed 12 mph    
Max Gust Speed 16 mph    
Visibility 8 miles    
Events Rain    
Averages and records for this station are not official NWS values.
T = Trace of Precipitation, MM = Missing Value Source: NWS Daily Summary

Daily Weather History Graph

Daily Weather History Graph

Search for Another Location

Airport or City:

Trip Planner

Search our weather history database for the weather conditions in past years. The results will help you decide how hot, cold, wet, or windy it might be!

Date:

Astronomy

Dec. 26, 2012 Rise Set
Actual Time 7:55 AM PST 4:30 PM PST
Civil Twilight 7:20 AM PST 5:05 PM PST
Nautical Twilight 6:42 AM PST 5:43 PM PST
Astronomical Twilight 6:05 AM PST 6:20 PM PST
Moon 3:29 PM PST (12/26) 6:22 AM PST (12/26)
Length of Visible Light 9h 44m
Length of Day
8h 34m
Waxing Gibbous, 98% of the Moon is Illuminated
Dec 26
Waxing Gibbous
Dec 28
Full
Jan 4
Last Quarter
Jan 11
New
Jan 18
First Quarter

Hourly Weather History & Observations

Time (PST) Temp. Windchill Dew Point Humidity Pressure Visibility Wind Dir Wind Speed Gust Speed Precip Events Conditions
12:15 AM 41.0 °F 38.0 °F 39.2 °F 93% 29.71 in 8.0 mi South 4.6 mph - N/A   Overcast
12:35 AM 41.0 °F 38.0 °F 39.2 °F 93% 29.71 in 10.0 mi SSE 4.6 mph - N/A Rain Light Rain
12:55 AM 41.0 °F 38.0 °F 39.2 °F 93% 29.71 in 9.0 mi SSE 4.6 mph - N/A   Overcast
1:15 AM 41.0 °F 38.0 °F 39.2 °F 93% 29.71 in 7.0 mi South 4.6 mph - N/A Rain Light Rain
1:35 AM 41.0 °F 38.0 °F 39.2 °F 93% 29.71 in 6.0 mi South 4.6 mph - 0.02 in Rain Light Rain
1:55 AM 41.0 °F 39.0 °F 39.2 °F 93% 29.72 in 6.0 mi South 3.5 mph - 0.04 in Rain Light Rain
2:15 AM 41.0 °F 39.0 °F 39.2 °F 93% 29.72 in 8.0 mi SW 3.5 mph - N/A Rain Light Rain
2:35 AM 41.0 °F 38.0 °F 39.2 °F 93% 29.73 in 10.0 mi South 4.6 mph - N/A Rain Light Rain
2:55 AM 41.0 °F 38.0 °F 39.2 °F 93% 29.73 in 8.0 mi South 4.6 mph - N/A   Overcast
3:15 AM 41.0 °F 38.0 °F 39.2 °F 93% 29.73 in 9.0 mi South 4.6 mph - N/A   Overcast
3:35 AM 41.0 °F 38.0 °F 39.2 °F 93% 29.73 in 10.0 mi South 4.6 mph - N/A   Overcast
3:55 AM 41.0 °F 38.0 °F 39.2 °F 93% 29.73 in 5.0 mi South 4.6 mph - N/A   Overcast
4:15 AM 41.0 °F 37.1 °F 39.2 °F 93% 29.73 in 10.0 mi South 5.8 mph - N/A   Overcast
4:35 AM 41.0 °F 36.4 °F 39.2 °F 93% 29.73 in 10.0 mi South 6.9 mph - N/A   Overcast
4:55 AM 41.0 °F 35.8 °F 39.2 °F 93% 29.73 in 10.0 mi South 8.1 mph - N/A   Overcast
5:15 AM 41.0 °F 35.8 °F 37.4 °F 87% 29.74 in 10.0 mi South 8.1 mph - N/A   Overcast
5:35 AM 39.2 °F 35.9 °F 37.4 °F 93% 29.74 in 6.0 mi SSW 4.6 mph - 0.01 in   Overcast
5:55 AM 39.2 °F 34.2 °F 39.2 °F 100% 29.74 in 10.0 mi South 6.9 mph - 0.01 in   Overcast
6:15 AM 39.2 °F 33.6 °F 39.2 °F 100% 29.74 in 6.0 mi SSE 8.1 mph - N/A   Overcast
6:35 AM 39.2 °F 35.0 °F 37.4 °F 93% 29.75 in 10.0 mi South 5.8 mph - 0.01 in   Mostly Cloudy
6:55 AM 39.2 °F 35.9 °F 37.4 °F 93% 29.76 in 10.0 mi SW 4.6 mph - 0.01 in   Overcast
7:15 AM 39.2 °F 35.0 °F 37.4 °F 93% 29.76 in 10.0 mi South 5.8 mph - N/A   Overcast
7:35 AM 39.2 °F 33.6 °F 37.4 °F 93% 29.77 in 10.0 mi South 8.1 mph - N/A   Overcast
8:15 AM 39.2 °F 33.6 °F 39.2 °F 100% 29.77 in 3.0 mi SSE 8.1 mph - 0.01 in Rain Light Rain
8:35 AM 39.2 °F 33.0 °F 39.2 °F 100% 29.78 in 10.0 mi South 9.2 mph - 0.02 in   Overcast
8:55 AM 41.0 °F 35.2 °F 39.2 °F 93% 29.79 in 3.0 mi South 9.2 mph - 0.02 in   Overcast
9:15 AM 41.0 °F 35.8 °F 39.2 °F 93% 29.80 in 10.0 mi South 8.1 mph - N/A   Mostly Cloudy
9:35 AM 41.0 °F 35.2 °F 39.2 °F 93% 29.80 in 10.0 mi South 9.2 mph - N/A   Overcast
9:55 AM 41.0 °F 37.1 °F 39.2 °F 93% 29.81 in 10.0 mi South 5.8 mph - N/A   Overcast
10:15 AM 41.0 °F 36.4 °F 39.2 °F 93% 29.82 in 10.0 mi South 6.9 mph - N/A   Overcast
10:35 AM 41.0 °F 36.4 °F 39.2 °F 93% 29.82 in 10.0 mi SSE 6.9 mph - N/A   Overcast
10:55 AM 42.8 °F 37.0 °F 41.0 °F 93% 29.82 in 9.0 mi SSE 10.4 mph - N/A   Overcast
11:15 AM 42.8 °F 38.0 °F 41.0 °F 93% 29.82 in 7.0 mi South 8.1 mph - N/A   Overcast
11:35 AM 44.6 °F 39.7 °F 39.2 °F 81% 29.82 in 8.0 mi SSE 9.2 mph - N/A   Mostly Cloudy
11:55 AM 44.6 °F 39.2 °F 39.2 °F 81% 29.82 in 6.0 mi South 10.4 mph - N/A   Scattered Clouds
12:15 PM 44.6 °F 39.7 °F 41.0 °F 87% 29.82 in 5.0 mi South 9.2 mph - N/A   Mostly Cloudy
12:35 PM 44.6 °F 39.7 °F 41.0 °F 87% 29.82 in 5.0 mi South 9.2 mph - N/A   Overcast
12:55 PM 44.6 °F 40.2 °F 41.0 °F 87% 29.82 in 4.0 mi South 8.1 mph - N/A   Mostly Cloudy
1:15 PM 42.8 °F 38.0 °F 41.0 °F 93% 29.82 in 9.0 mi South 8.1 mph - 0.01 in   Mostly Cloudy
1:35 PM 42.8 °F 38.0 °F 41.0 °F 93% 29.82 in 8.0 mi South 8.1 mph - 0.01 in   Mostly Cloudy
1:55 PM 44.6 °F 39.7 °F 41.0 °F 87% 29.82 in 5.0 mi South 9.2 mph - 0.01 in   Mostly Cloudy
2:15 PM 44.6 °F 39.7 °F 41.0 °F 87% 29.82 in 8.0 mi SSE 9.2 mph - N/A   Mostly Cloudy
2:35 PM 44.6 °F 38.8 °F 41.0 °F 87% 29.83 in 8.0 mi South 11.5 mph - N/A   Overcast
2:55 PM 42.8 °F 36.6 °F 41.0 °F 93% 29.83 in 4.0 mi South 11.5 mph 16.1 mph N/A   Overcast
3:15 PM 42.8 °F 38.0 °F 41.0 °F 93% 29.84 in 7.0 mi South 8.1 mph - N/A Rain Light Rain
3:35 PM 42.8 °F 38.0 °F 41.0 °F 93% 29.85 in 4.0 mi South 8.1 mph - N/A Rain Light Rain
4:15 PM 42.8 °F 38.6 °F 41.0 °F 93% 29.86 in 8.0 mi South 6.9 mph - 0.01 in   Overcast
4:35 PM 42.8 °F 38.0 °F 41.0 °F 93% 29.86 in 5.0 mi SSE 8.1 mph - 0.01 in   Overcast
4:55 PM 41.0 °F 36.4 °F 41.0 °F 100% 29.87 in 10.0 mi SSW 6.9 mph - 0.01 in   Overcast
5:15 PM 41.0 °F 37.1 °F 41.0 °F 100% 29.87 in 5.0 mi South 5.8 mph - N/A Rain Light Rain
5:35 PM 41.0 °F 35.8 °F 41.0 °F 100% 29.88 in 10.0 mi South 8.1 mph - N/A Rain Light Rain
5:55 PM 41.0 °F 36.4 °F 41.0 °F 100% 29.88 in 9.0 mi SSE 6.9 mph - N/A Rain Light Rain
6:15 PM 41.0 °F 36.4 °F 41.0 °F 100% 29.88 in 10.0 mi South 6.9 mph - N/A   Overcast
6:35 PM 41.0 °F 36.4 °F 41.0 °F 100% 29.89 in 10.0 mi SSW 6.9 mph - N/A   Overcast
6:55 PM 41.0 °F 35.8 °F 39.2 °F 93% 29.89 in 9.0 mi SSW 8.1 mph - N/A   Overcast
7:15 PM 41.0 °F 36.4 °F 39.2 °F 93% 29.90 in 10.0 mi South 6.9 mph - N/A Rain Light Rain
7:35 PM 41.0 °F 37.1 °F 39.2 °F 93% 29.91 in 9.0 mi SSW 5.8 mph - N/A   Overcast
7:55 PM 41.0 °F 36.4 °F 39.2 °F 93% 29.91 in 7.0 mi SSW 6.9 mph - 0.01 in   Overcast
8:15 PM 41.0 °F 36.4 °F 39.2 °F 93% 29.91 in 9.0 mi South 6.9 mph - N/A   Overcast
8:35 PM 41.0 °F 35.8 °F 39.2 °F 93% 29.92 in 9.0 mi South 8.1 mph - N/A   Overcast
8:55 PM 41.0 °F 36.4 °F 39.2 °F 93% 29.93 in 10.0 mi South 6.9 mph - N/A   Overcast
9:15 PM 41.0 °F 36.4 °F 39.2 °F 93% 29.93 in 10.0 mi South 6.9 mph - N/A   Overcast
9:35 PM 41.0 °F 35.8 °F 39.2 °F 93% 29.94 in 7.0 mi SSE 8.1 mph - N/A Rain Light Rain
9:55 PM 41.0 °F 36.4 °F 39.2 °F 93% 29.95 in 10.0 mi South 6.9 mph - N/A   Overcast
10:15 PM 41.0 °F 35.2 °F 39.2 °F 93% 29.95 in 10.0 mi South 9.2 mph - 0.01 in   Overcast
10:35 PM 41.0 °F 35.8 °F 39.2 °F 93% 29.96 in 10.0 mi South 8.1 mph - 0.01 in   Overcast
10:55 PM 41.0 °F 35.8 °F 39.2 °F 93% 29.97 in 10.0 mi South 8.1 mph - 0.01 in   Overcast
11:15 PM 41.0 °F 35.8 °F 39.2 °F 93% 29.98 in 9.0 mi South 8.1 mph - N/A Rain Light Rain
11:35 PM 41.0 °F 35.8 °F 39.2 °F 93% 29.98 in 9.0 mi South 8.1 mph - N/A   Overcast
11:55 PM 41.0 °F 36.4 °F 39.2 °F 93% 29.98 in 10.0 mi South 6.9 mph - N/A   Overcast